Oxford, NC

8:25 PM EDT on March 25, 2017 (GMT -0400)
Henderson-Oxford

Weather History for KHNZ - December, 2012

Change the Weather History Date:

Tuesday, December 11, 2012

  Actual Average (KTDF) Record (KTDF)
Temperature  
Mean Temperature 54 °F -  
Max Temperature 63 °F 52 °F 74 °F (1971)
Min Temperature 46 °F 30 °F 10 °F (1968)
Degree Days  
Heating Degree Days 10    
Growing Degree Days 4 (Base 50)    
Moisture  
Dew Point 41 °F    
Average Humidity 62    
Maximum Humidity 81    
Minimum Humidity 48    
Precipitation  
Precipitation 0.00 in - - ()
Sea Level Pressure  
Sea Level Pressure 29.95 in    
Wind  
Wind Speed 9 mph (NNW)    
Max Wind Speed 18 mph    
Max Gust Speed 24 mph    
Visibility 10 miles    
Events      
Averages and records for this station are not official NWS values.
T = Trace of Precipitation, MM = Missing Value Source: NWS Daily Summary

Daily Weather History Graph

Daily Weather History Graph

Search for Another Location

Airport or City:

Trip Planner

Search our weather history database for the weather conditions in past years. The results will help you decide how hot, cold, wet, or windy it might be!

Date:

Astronomy

Dec. 11, 2012 Rise Set
Actual Time 7:15 AM EST 4:59 PM EST
Civil Twilight 6:47 AM EST 5:27 PM EST
Nautical Twilight 6:15 AM EST 6:00 PM EST
Astronomical Twilight 5:43 AM EST 6:31 PM EST
Moon 5:10 AM EST (12/11) 3:35 PM EST (12/11)
Length of Visible Light 10h 40m
Length of Day
9h 43m
Waning Crescent, 4% of the Moon is Illuminated
Dec 11
Waning Crescent
Dec 13
New
Dec 20
First Quarter
Dec 28
Full
Jan 4
Last Quarter

Hourly Weather History & Observations

Time (EST) Temp. Dew Point Humidity Pressure Visibility Wind Dir Wind Speed Gust Speed Precip Events Conditions
12:15 AM 63.5 °F 55.6 °F 75% 29.70 in 10.0 mi SSW 18.4 mph 24.2 mph N/A   Clear
12:35 AM 63.5 °F 55.8 °F 76% 29.70 in 10.0 mi SSW 13.8 mph 20.7 mph N/A   Scattered Clouds
12:55 AM 63.5 °F 55.9 °F 76% 29.71 in 10.0 mi SSW 17.3 mph 21.9 mph N/A   Scattered Clouds
1:15 AM 63.1 °F 55.8 °F 77% 29.71 in 10.0 mi SSW 15.0 mph 19.6 mph N/A   Scattered Clouds
1:35 AM 62.8 °F 55.9 °F 78% 29.72 in 10.0 mi SW 12.7 mph - N/A   Scattered Clouds
1:55 AM 62.6 °F 56.1 °F 79% 29.74 in 10.0 mi SW 9.2 mph - N/A   Mostly Cloudy
2:15 AM 63.0 °F 56.3 °F 79% 29.74 in 10.0 mi SW 9.2 mph - N/A   Overcast
2:35 AM 63.0 °F 56.3 °F 79% 29.75 in 10.0 mi SW 9.2 mph - N/A   Overcast
2:55 AM 63.0 °F 56.3 °F 79% 29.75 in 10.0 mi SW 9.2 mph - N/A   Overcast
3:15 AM 62.8 °F 56.3 °F 79% 29.76 in 10.0 mi SW 9.2 mph - N/A   Overcast
3:35 AM 62.8 °F 56.3 °F 79% 29.76 in 10.0 mi SW 8.1 mph - N/A   Overcast
3:55 AM 62.2 °F 56.3 °F 81% 29.77 in 10.0 mi SW 8.1 mph - N/A   Overcast
4:15 AM 62.4 °F 56.5 °F 81% 29.77 in 10.0 mi SSW 6.9 mph - N/A   Overcast
4:35 AM 62.2 °F 56.1 °F 80% 29.78 in 10.0 mi NW 4.6 mph - N/A   Overcast
4:55 AM 57.4 °F 50.4 °F 77% 29.79 in 10.0 mi NNW 12.7 mph 17.3 mph N/A   Overcast
5:15 AM 54.7 °F 44.1 °F 67% 29.81 in 10.0 mi NNW 8.1 mph - N/A   Overcast
5:35 AM 54.1 °F 41.9 °F 63% 29.82 in 10.0 mi NW 5.8 mph - N/A   Overcast
5:55 AM 53.2 °F 39.0 °F 59% 29.83 in 10.0 mi NW 6.9 mph - N/A   Overcast
6:15 AM 52.9 °F 37.6 °F 56% 29.85 in 10.0 mi NNW 5.8 mph - N/A   Mostly Cloudy
6:35 AM 52.9 °F 37.9 °F 57% 29.85 in 10.0 mi NW 4.6 mph - N/A   Overcast
6:55 AM 52.9 °F 37.6 °F 56% 29.86 in 10.0 mi NW 6.9 mph - N/A   Overcast
7:15 AM 52.5 °F 36.7 °F 55% 29.87 in 10.0 mi NNW 8.1 mph - N/A   Overcast
7:35 AM 52.3 °F 36.0 °F 54% 29.88 in 10.0 mi NW 6.9 mph - N/A   Overcast
7:55 AM 52.2 °F 36.0 °F 54% 29.88 in 10.0 mi NNW 6.9 mph - N/A   Overcast
8:15 AM 52.3 °F 36.5 °F 55% 29.90 in 10.0 mi NW 3.5 mph - N/A   Overcast
8:35 AM 52.0 °F 36.1 °F 55% 29.91 in 10.0 mi NW 6.9 mph - N/A   Overcast
8:55 AM 52.0 °F 35.6 °F 54% 29.92 in 10.0 mi NW 6.9 mph - N/A   Overcast
9:15 AM 52.7 °F 36.3 °F 54% 29.93 in 10.0 mi NW 5.8 mph - N/A   Overcast
9:35 AM 53.1 °F 36.3 °F 53% 29.94 in 10.0 mi NW 4.6 mph - N/A   Mostly Cloudy
9:55 AM 53.6 °F 35.8 °F 51% 29.94 in 10.0 mi NW 6.9 mph - N/A   Mostly Cloudy
10:15 AM 52.9 °F 35.6 °F 52% 29.95 in 10.0 mi NW 10.4 mph - N/A   Overcast
10:35 AM 52.7 °F 35.6 °F 52% 29.97 in 10.0 mi NW 5.8 mph - N/A   Overcast
10:55 AM 53.2 °F 36.0 °F 52% 29.97 in 10.0 mi NNW 6.9 mph - N/A   Overcast
11:15 AM 55.0 °F 36.0 °F 49% 29.97 in 10.0 mi NNW 5.8 mph - N/A   Mostly Cloudy
11:35 AM 54.0 °F 35.2 °F 49% 29.97 in 10.0 mi WNW 3.5 mph - N/A   Scattered Clouds
11:55 AM 55.2 °F 36.3 °F 49% 29.97 in 10.0 mi NNW 6.9 mph - N/A   Mostly Cloudy
12:15 PM 55.0 °F 36.0 °F 49% 29.97 in 10.0 mi North 5.8 mph - N/A   Mostly Cloudy
12:35 PM 55.6 °F 36.3 °F 48% 29.96 in 10.0 mi NNW 6.9 mph - N/A   Mostly Cloudy
12:55 PM 55.4 °F 37.2 °F 50% 29.96 in 10.0 mi North 5.8 mph - N/A   Mostly Cloudy
1:15 PM 55.0 °F 36.5 °F 50% 29.96 in 10.0 mi NNE 5.8 mph - N/A   Overcast
1:35 PM 55.4 °F 37.2 °F 50% 29.97 in 10.0 mi North 5.8 mph - N/A   Overcast
1:55 PM 55.0 °F 37.2 °F 51% 29.97 in 10.0 mi North 5.8 mph - N/A   Overcast
2:15 PM 55.4 °F 37.6 °F 51% 29.97 in 10.0 mi North 4.6 mph - N/A   Overcast
2:35 PM 55.0 °F 37.9 °F 53% 29.97 in 10.0 mi NNW 5.8 mph - N/A   Overcast
2:55 PM 54.5 °F 37.8 °F 53% 29.98 in 10.0 mi North 5.8 mph - N/A   Overcast
3:15 PM 54.5 °F 37.9 °F 54% 29.99 in 10.0 mi NNW 3.5 mph - N/A   Overcast
3:35 PM 54.1 °F 37.8 °F 54% 30.01 in 10.0 mi NNW 5.8 mph - N/A   Overcast
3:55 PM 54.0 °F 37.9 °F 55% 30.02 in 10.0 mi NW 4.6 mph - N/A   Overcast
4:15 PM 53.8 °F 38.3 °F 56% 30.02 in 10.0 mi North 5.8 mph - N/A   Overcast
4:35 PM 52.9 °F 41.2 °F 64% 30.03 in 10.0 mi NNE 5.8 mph - N/A   Overcast
4:55 PM 52.0 °F 40.6 °F 65% 30.04 in 10.0 mi NNE 5.8 mph - N/A   Overcast
5:15 PM 51.4 °F 40.6 °F 67% 30.05 in 10.0 mi NNE 5.8 mph - N/A   Overcast
5:35 PM 51.3 °F 40.3 °F 66% 30.06 in 10.0 mi NNE 4.6 mph - N/A   Overcast
5:55 PM 50.9 °F 40.5 °F 67% 30.06 in 10.0 mi NNE 4.6 mph - N/A   Overcast
6:15 PM 50.4 °F 40.1 °F 68% 30.07 in 10.0 mi North 4.6 mph - N/A   Overcast
6:35 PM 50.4 °F 40.5 °F 69% 30.08 in 10.0 mi NE 3.5 mph - N/A   Overcast
6:55 PM 50.0 °F 40.3 °F 69% 30.09 in 10.0 mi NE 5.8 mph - N/A   Overcast
7:15 PM 50.0 °F 39.2 °F 66% 30.09 in 10.0 mi NE 5.8 mph - N/A   Overcast
7:35 PM 50.0 °F 38.7 °F 65% 30.11 in 10.0 mi NE 5.8 mph - N/A   Overcast
7:55 PM 49.8 °F 38.3 °F 65% 30.12 in 10.0 mi NE 5.8 mph - N/A   Overcast
8:15 PM 49.6 °F 37.9 °F 64% 30.12 in 10.0 mi NE 5.8 mph - N/A   Overcast
8:35 PM 49.3 °F 38.3 °F 66% 30.12 in 10.0 mi NE 6.9 mph - N/A   Overcast
8:55 PM 49.1 °F 37.2 °F 64% 30.12 in 10.0 mi NE 6.9 mph - N/A   Overcast
9:15 PM 49.1 °F 36.9 °F 63% 30.13 in 10.0 mi NNE 5.8 mph - N/A   Overcast
9:35 PM 48.7 °F 36.7 °F 63% 30.13 in 10.0 mi NNE 4.6 mph - N/A   Overcast
9:55 PM 48.4 °F 36.7 °F 64% 30.13 in 10.0 mi NNE 6.9 mph - N/A   Overcast
10:15 PM 48.4 °F 36.5 °F 64% 30.14 in 10.0 mi NNE 8.1 mph - N/A   Overcast
10:35 PM 48.2 °F 36.5 °F 64% 30.15 in 10.0 mi NE 3.5 mph - N/A   Overcast
10:55 PM 48.2 °F 36.1 °F 63% 30.16 in 10.0 mi NE 4.6 mph - N/A   Overcast
11:15 PM 47.7 °F 35.8 °F 63% 30.15 in 10.0 mi NE 4.6 mph - N/A   Mostly Cloudy
11:35 PM 46.9 °F 36.0 °F 66% 30.16 in 10.0 mi NE 4.6 mph - N/A   Mostly Cloudy
11:55 PM 47.3 °F 35.8 °F 64% 30.16 in 10.0 mi NE 6.9 mph - N/A   Overcast